Regional Weather Roundup
Issued by NWS

Home | Current Version | Previous Version | Graphics & Text | Print | Product List | Glossary On
Versions: 1 2 3 4 5 6 7 8 9 10 11 12 13 14 15 16 17 18 19 20 21 22 23 24 25 26 27 28 29 30 31 32 33 34 35 36 37 38 39 40 41 42 43 44 45 46 47 48 49 50
000
ASUS45 KPSR 061910
RWRAZ

ARIZONA HOURLY REGIONAL WEATHER ROUNDUP
NATIONAL WEATHER SERVICE PHOENIX AZ
1200 PM MST MON JUL 06 2015

NOTE: FAIR INDICATES FEW OR NO CLOUDS BELOW 12,000 FEET WITH NO
SIGNIFICANT WEATHER AND/OR OBSTRUCTIONS TO VISIBILITY.

AZZ001>003-036-062000-
NORTHWEST ARIZONA

CITY           SKY/WX    TMP DP  RH WIND       PRES   REMARKS
BULLHEAD CITY  MOSUNNY   99  57  25 SW8       29.93F
KINGMAN        MOSUNNY   89  52  28 SW10G24   30.12F
$$

AZZ004>008-015-016-018-062000-
NORTH CENTRAL ARIZONA

CITY           SKY/WX    TMP DP  RH WIND       PRES   REMARKS
GRAND CANYON   PTSUNNY   70  51  51 W8G16     30.32S
WILLIAMS       MOSUNNY   73  52  46 NW9       30.39F
PRESCOTT       SUNNY     83  54  36 N6        30.22F
FLAGSTAFF      PTSUNNY   72  47  40 W7        30.34F
PAYSON         MOSUNNY   84  50  30 W12G18    30.23F
PAGE           CLOUDY    82  52  35 N8        30.14F
$$

AZZ009>014-017-062000-
NORTHEAST ARIZONA

CITY           SKY/WX    TMP DP  RH WIND       PRES   REMARKS
WINSLOW        MOSUNNY   87  50  27 VRB3      30.18F
SAINT JOHNS    MOSUNNY   83  49  30 NW8       30.22F
WINDOW ROCK    MOSUNNY   81  46  29 W7        30.26F
SHOW LOW       SUNNY     75  48  38 NE5       30.30F
$$

AZZ023-062000-
GREATER PHOENIX AREA

CITY           SKY/WX    TMP DP  RH WIND       PRES   REMARKS
PHOENIX        MOSUNNY   95  64  35 NW9       29.95F
BUCKEYE        SUNNY     93  66  40 S5        29.96F
GLENDALE       MOSUNNY   91  66  43 VRB3      29.97F
LUKE AFB       SUNNY     93  66  40 VRB6      29.94F
DEER VALLEY    SUNNY     93  61  34 SW10      29.97F
SCOTTSDALE     SUNNY     93  62  35 SW6       29.99F
MESA-FALCON    MOSUNNY   91  61  35 SW9       29.97F
MESA-GATEWAY   MOSUNNY   93  64  38 W8        30.00F
CHANDLER       MOSUNNY   95  64  36 W6        29.97F
$$

AZZ027-028-062000-
SOUTHWEST MARICOPA COUNTY AND PINAL COUNTY

CITY           SKY/WX    TMP DP  RH WIND       PRES   REMARKS
CASA GRANDE    SUNNY     93  66  40 NE3       29.97F
GILA BEND      MOSUNNY   99  58  25 W8        29.92F
$$

AZZ503-504-507>509-062000-
SOUTHEAST ARIZONA

CITY           SKY/WX    TMP DP  RH WIND       PRES   REMARKS
TUCSON         SUNNY     92  61  35 SW9       30.06F
DAVIS-MONTHAN  SUNNY     88  63  43 NW2       30.04F
RYAN FIELD     SUNNY     91  63  38 W3        30.05F
NOGALES        MOSUNNY   87  59  38 NW7       30.13F
SIERRA VISTA   MOSUNNY   84  58  39 NW7       30.20F
DOUGLAS        MOSUNNY   86  59  39 NW9       30.14F
SAFFORD        SUNNY     92  61  35 W15G22    30.03F
$$

AZZ020-021-025-026-031-062000-
SOUTHWEST ARIZONA

CITY           SKY/WX    TMP DP  RH WIND       PRES   REMARKS
YUMA           SUNNY     99  71  40 S9        29.89F HX 107
$$

CAZ031-033-041-043-047-048-061-062000-
SOUTHERN CALIFORNIA

CITY           SKY/WX    TMP DP  RH WIND       PRES   REMARKS
DOWNTOWN L.A.  CLOUDY    69  60  73 VRB3      30.05F
L.A. AIRPORT   CLOUDY    66  60  81 W6        30.06F
SAN DIEGO      CLOUDY    69  60  73 NW7       30.07S
BURBANK        SUNNY     72  59  63 VRB6      30.04F
ONTARIO        MOSUNNY   74  58  57 W5        30.04F
RIVERSIDE      MOSUNNY   75  60  59 VRB5      30.04
PALM SPRINGS   SUNNY     99  52  20 E5        29.93F
EL CENTRO NAS  MOSUNNY   97  65  34 VRB3      29.88F
IMPERIAL       SUNNY     98  64  32 E5        29.86F HX 100
BLYTHE         SUNNY    101  47  16 S13       29.90F
NEEDLES        SUNNY    100  56  23 VRB3      29.93F
$$

NVZ020-UTZ003-062000-
SOUTHERN NEVADA-UTAH

CITY           SKY/WX    TMP DP  RH WIND       PRES   REMARKS
LAS VEGAS      MOSUNNY   94  53  25 SE6       29.97F
SALT LAKE CITY PTSUNNY   83  59  44 NW10      30.10F
$$

NMZ009-TXZ055-062000-
NEW MEXICO-WEST TEXAS

CITY           SKY/WX    TMP DP  RH WIND       PRES   REMARKS
ALBUQUERQUE    MOSUNNY   84  53  34 W8        30.15F
EL PASO        MOSUNNY   89  57  33 W8        30.05F
$$


........................KEY........................
SKY/WX - SKY CONDITION/WEATHER
TMP    - TEMPERATURE IN FAHRENHEIT
DP     - DEW POINT IN FAHRENHEIT
RH     - RELATIVE HUMIDITY IN PERCENT
WIND   - DIRECTION AND SPEED IN MILES PER HOUR (MPH)
VRB    - VARIABLE WIND DIRECTION
PRES   - MEAN SEA LEVEL PRESSURE IN INCHES OF MERCURY
         F - FALLING PRESSURE   R - RISING PRESSURE
         S - STEADY PRESSURE
VSB    - VISIBILITY IN MILES
HX     - HEAT INDEX IN FAHRENHEIT
WCI    - WIND CHILL INDEX IN FAHRENHEIT
TC     - TEMPERATURE IN CELSIUS WHICH IS ALSO KNOWN AS
         TEMPERATURE IN CENTIGRADE
AFB    - AIR FORCE BASE
         LUKE AFB IS LUKE AIR FORCE BASE
         DAVIS-MONTHAN IS DAVIS-MONTHAN AIR FORCE BASE
NAS    - NAVAL AIR STATION
         EL CENTRO NAS IS EL CENTRO NAVAL AIR STATION
N/A    - NOT AVAILABLE




USA.gov is the U.S. government's official web portal to all federal, state and local government web resources and services.